Location: Finkenwalde
(53.3770°N, 14.6418°E)
Time: 06:15:32
(UTC+00:00)

SL-16 R/B - Pass Details

Date: 05 February 2023
Orbit: 842 x 846 km, 71.0° (Epoch: 24 March)

Event Time Altitude Azimuth Distance (km) Brightness Sun altitude
Rises 19:50:10 0° 275° (W) 3,405 6.3 -35.3°
Reaches altitude 10° 19:53:28 10° 295° (WNW) 2,473 5.4 -35.7°
Maximum altitude 19:57:15 18° 337° (NNW) 1,975 4.5 -36.2°
Enters shadow 19:58:50 16° 357° (N) 2,072 4.4 -36.4°
